When you browse on this site, cookies collect data to enhance your experience and personalize the content and advertising you see.
Visit our Privacy Policy to learn more. By continuing to use the site, you agree to this use of cookies and data.

Previsão horária em Abashevo

Hoje, 22 Setembro, Terça-feira

Tempo Temperatura Precipitação Vento Pressão Humidade
00:00 +10°C° 0 mm 5 m/s 756 mmHg 71%
01:00 +10°C° 0 mm 5 m/s 757 mmHg 73%
02:00 +10°C° 0 mm 5 m/s 757 mmHg 75%
03:00 +11°C° 0 mm 4 m/s 757 mmHg 80%
04:00 +10°C° 0 mm 4 m/s 757 mmHg 82%
05:00 +10°C° 0 mm 4 m/s 757 mmHg 85%
06:00 +10°C° 0 mm 4 m/s 757 mmHg 87%
07:00 +11°C° 0 mm 4 m/s 758 mmHg 82%
08:00 +12°C° 0 mm 4 m/s 758 mmHg 76%
09:00 +14°C° 0 mm 5 m/s 758 mmHg 71%
10:00 +15°C° 0 mm 5 m/s 758 mmHg 66%
11:00 +16°C° 0 mm 5 m/s 758 mmHg 61%
12:00 +17°C° 0 mm 6 m/s 758 mmHg 57%
13:00 +17°C° 0 mm 6 m/s 758 mmHg 56%
14:00 +19°C° 0 mm 6 m/s 758 mmHg 55%
15:00 +19°C° 0 mm 6 m/s 758 mmHg 54%
16:00 +17°C° 0 mm 6 m/s 757 mmHg 58%
17:00 +16°C° 0 mm 6 m/s 757 mmHg 62%
18:00 +15°C° 0 mm 5 m/s 757 mmHg 66%
19:00 +15°C° 0 mm 5 m/s 757 mmHg 68%
20:00 +15°C° 0 mm 5 m/s 757 mmHg 70%
21:00 +14°C° 0 mm 5 m/s 757 mmHg 71%
22:00 +14°C° 0 mm 5 m/s 757 mmHg 74%
23:00 +14°C° 0 mm 5 m/s 756 mmHg 76%

Amanhã, 23 Setembro, Quarta-feira

Tempo Temperatura Precipitação Vento Pressão Humidade
00:00 +13°C° 0 mm 5 m/s 756 mmHg 79%
01:00 +13°C° 0 mm 5 m/s 756 mmHg 81%
02:00 +13°C° 0 mm 5 m/s 756 mmHg 83%
03:00 +12°C° 0 mm 5 m/s 756 mmHg 85%
04:00 +12°C° 0 mm 4 m/s 757 mmHg 86%
05:00 +12°C° 0 mm 4 m/s 757 mmHg 87%
06:00 +11°C° 0 mm 4 m/s 757 mmHg 88%
07:00 +13°C° 0 mm 5 m/s 757 mmHg 80%
08:00 +14°C° 0 mm 5 m/s 757 mmHg 73%
09:00 +16°C° 0 mm 5 m/s 758 mmHg 66%
10:00 +17°C° 0 mm 5 m/s 758 mmHg 61%
11:00 +19°C° 0 mm 5 m/s 758 mmHg 57%
12:00 +20°C° 0 mm 5 m/s 758 mmHg 52%
13:00 +21°C° 0 mm 5 m/s 758 mmHg 51%
14:00 +21°C° 0 mm 4 m/s 759 mmHg 50%
15:00 +22°C° 0 mm 4 m/s 759 mmHg 50%
16:00 +20°C° 0 mm 3 m/s 759 mmHg 55%
17:00 +18°C° 0 mm 3 m/s 759 mmHg 61%
18:00 +17°C° 0 mm 2 m/s 760 mmHg 67%
19:00 +16°C° 0 mm 2 m/s 760 mmHg 69%
20:00 +15°C° 0 mm 2 m/s 760 mmHg 71%
21:00 +14°C° 0 mm 2 m/s 761 mmHg 74%
22:00 +14°C° 0 mm 1 m/s 761 mmHg 76%
23:00 +13°C° 0 mm 1 m/s 761 mmHg 78%

Depois de amanhã, 24 Setembro, Quinta-feira

Tempo Temperatura Precipitação Vento Pressão Humidade
00:00 +13°C° 0 mm 1 m/s 762 mmHg 80%
01:00 +12°C° 0 mm 1 m/s 762 mmHg 79%
02:00 +12°C° 0 mm 1 m/s 763 mmHg 79%
03:00 +12°C° 0 mm 1 m/s 763 mmHg 79%
04:00 +12°C° 0 mm 1 m/s 763 mmHg 78%
05:00 +11°C° 0 mm 1 m/s 763 mmHg 77%
06:00 +11°C° 0 mm 1 m/s 764 mmHg 77%
07:00 +13°C° 0 mm 1 m/s 764 mmHg 70%
08:00 +14°C° 0 mm 1 m/s 764 mmHg 64%
09:00 +16°C° 0 mm 2 m/s 765 mmHg 57%
10:00 +17°C° 0 mm 2 m/s 765 mmHg 53%
11:00 +18°C° 0 mm 2 m/s 765 mmHg 50%
12:00 +19°C° 0 mm 2 m/s 765 mmHg 46%
13:00 +19°C° 0 mm 2 m/s 765 mmHg 44%
14:00 +19°C° 0 mm 2 m/s 765 mmHg 43%
15:00 +20°C° 0 mm 2 m/s 765 mmHg 41%
16:00 +18°C° 0 mm 2 m/s 765 mmHg 44%
17:00 +17°C° 0 mm 2 m/s 765 mmHg 47%
18:00 +16°C° 0 mm 2 m/s 765 mmHg 49%
19:00 +15°C° 0 mm 2 m/s 765 mmHg 49%
20:00 +15°C° 0 mm 2 m/s 765 mmHg 48%
21:00 +14°C° 0 mm 2 m/s 765 mmHg 47%
22:00 +14°C° 0 mm 2 m/s 766 mmHg 48%
23:00 +13°C° 0 mm 2 m/s 766 mmHg 48%

25 Setembro, Sexta-feira

Tempo Temperatura Precipitação Vento Pressão Humidade
00:00 +13°C° 0 mm 2 m/s 766 mmHg 49%
01:00 +13°C° 0 mm 2 m/s 766 mmHg 49%
02:00 +13°C° 0 mm 2 m/s 766 mmHg 50%
03:00 +12°C° 0 mm 2 m/s 766 mmHg 51%
04:00 +12°C° 0 mm 2 m/s 766 mmHg 52%
05:00 +12°C° 0 mm 2 m/s 766 mmHg 54%
06:00 +10°C° 0 mm 2 m/s 766 mmHg 56%
07:00 +13°C° 0 mm 2 m/s 767 mmHg 53%
08:00 +14°C° 0 mm 2 m/s 767 mmHg 50%
09:00 +16°C° 0 mm 3 m/s 767 mmHg 48%
10:00 +17°C° 0 mm 3 m/s 767 mmHg 44%
11:00 +18°C° 0 mm 3 m/s 767 mmHg 41%
12:00 +19°C° 0 mm 3 m/s 767 mmHg 37%
13:00 +19°C° 0 mm 3 m/s 767 mmHg 38%
14:00 +19°C° 0 mm 3 m/s 766 mmHg 38%
15:00 +19°C° 0 mm 3 m/s 766 mmHg 38%
16:00 +18°C° 0 mm 3 m/s 766 mmHg 42%
17:00 +16°C° 0 mm 3 m/s 766 mmHg 47%
18:00 +14°C° 0 mm 3 m/s 766 mmHg 51%
19:00 +13°C° 0 mm 3 m/s 766 mmHg 53%
20:00 +12°C° 0 mm 3 m/s 766 mmHg 54%
21:00 +12°C° 0 mm 3 m/s 766 mmHg 56%
22:00 +11°C° 0 mm 3 m/s 766 mmHg 56%
23:00 +12°C° 0 mm 2 m/s 766 mmHg 57%

26 Setembro, Sábado

Tempo Temperatura Precipitação Vento Pressão Humidade
00:00 +12°C° 0 mm 2 m/s 766 mmHg 57%
01:00 +12°C° 0 mm 2 m/s 766 mmHg 57%
02:00 +12°C° 0 mm 2 m/s 767 mmHg 57%
03:00 +12°C° 0 mm 2 m/s 767 mmHg 57%
04:00 +10°C° 0 mm 2 m/s 767 mmHg 57%
05:00 +10°C° 0 mm 2 m/s 767 mmHg 57%
06:00 +10°C° 0 mm 3 m/s 767 mmHg 57%
07:00 +12°C° 0 mm 3 m/s 767 mmHg 53%
08:00 +13°C° 0 mm 3 m/s 767 mmHg 50%
09:00 +14°C° 0 mm 4 m/s 767 mmHg 46%
10:00 +17°C° 0 mm 4 m/s 767 mmHg 43%
11:00 +18°C° 0 mm 4 m/s 767 mmHg 40%
12:00 +19°C° 0 mm 4 m/s 768 mmHg 36%
13:00 +19°C° 0 mm 4 m/s 768 mmHg 36%
14:00 +19°C° 0 mm 4 m/s 768 mmHg 36%
15:00 +19°C° 0 mm 4 m/s 768 mmHg 36%
16:00 +18°C° 0 mm 4 m/s 768 mmHg 40%
17:00 +17°C° 0 mm 3 m/s 768 mmHg 45%
18:00 +14°C° 0 mm 3 m/s 768 mmHg 49%
19:00 +13°C° 0 mm 3 m/s 768 mmHg 51%
20:00 +13°C° 0 mm 3 m/s 768 mmHg 52%
21:00 +12°C° 0 mm 3 m/s 769 mmHg 53%
22:00 +12°C° 0 mm 3 m/s 769 mmHg 54%
23:00 +11°C° 0 mm 3 m/s 769 mmHg 56%

27 Setembro, Domingo

Tempo Temperatura Precipitação Vento Pressão Humidade
00:00 +11°C° 0 mm 3 m/s 769 mmHg 57%
01:00 +10°C° 0 mm 2 m/s 769 mmHg 58%
02:00 +10°C° 0 mm 2 m/s 769 mmHg 59%
03:00 +10°C° 0 mm 2 m/s 769 mmHg 60%
04:00 +10°C° 0 mm 2 m/s 769 mmHg 61%
05:00 +9°C° 0 mm 2 m/s 770 mmHg 62%
06:00 +9°C° 0 mm 3 m/s 770 mmHg 63%
07:00 +11°C° 0 mm 3 m/s 770 mmHg 57%
08:00 +13°C° 0 mm 3 m/s 770 mmHg 51%
09:00 +16°C° 0 mm 3 m/s 770 mmHg 45%
10:00 +17°C° 0 mm 4 m/s 770 mmHg 41%
11:00 +18°C° 0 mm 4 m/s 770 mmHg 36%
12:00 +20°C° 0 mm 5 m/s 770 mmHg 32%
13:00 +20°C° 0 mm 5 m/s 770 mmHg 32%
14:00 +20°C° 0 mm 4 m/s 770 mmHg 32%
15:00 +20°C° 0 mm 4 m/s 769 mmHg 33%
16:00 +18°C° 0 mm 4 m/s 769 mmHg 37%
17:00 +17°C° 0 mm 3 m/s 769 mmHg 42%
18:00 +14°C° 0 mm 3 m/s 769 mmHg 46%
19:00 +13°C° 0 mm 3 m/s 769 mmHg 48%
20:00 +13°C° 0 mm 3 m/s 769 mmHg 50%
21:00 +12°C° 0 mm 3 m/s 770 mmHg 51%
22:00 +11°C° 0 mm 3 m/s 770 mmHg 53%
23:00 +12°C° 0 mm 2 m/s 770 mmHg 55%
Mostrar mais